Location: Newark
(37.9717°N, 99.9089°W)
Time: 19:25:45
(UTC+00:00)

N. Korean satellite - Visible Passes

Search period start: 26 September 2021 00:00
Search period end: 06 October 2021 00:00
Orbit: 449 x 498 km, 97.3° (Epoch: 26 September)

Date Brightness Start Highest point End Pass type
(mag) Time Alt. Az. Time Alt. Az. Time Alt. Az.
26 Sep 9.8 10:58:31 10° ENE 11:00:26 14° E 11:02:23 10° SE visible
27 Sep 6.5 12:02:27 10° N 12:06:00 74° WNW 12:09:37 10° SSW visible
28 Sep 7.9 11:34:46 10° NNE 11:38:12 43° E 11:41:39 10° S visible
29 Sep 9.6 11:07:41 10° NE 11:10:16 19° E 11:12:53 10° SE visible
01 Oct 7.2 11:44:20 10° NNE 11:47:55 60° E 11:51:31 10° S visible
02 Oct 9.1 11:16:58 10° NE 11:20:00 25° E 11:23:02 10° SSE visible
03 Oct 10.1 10:50:52 10° ENE 10:51:58 11° E 10:53:03 10° ESE visible
04 Oct 6.7 11:53:53 10° NNE 11:57:31 84° ESE 12:01:10 10° S visible
05 Oct 8.5 11:26:17 10° NNE 11:29:36 33° E 11:32:56 10° SSE visible
